Home   Weather   Inverness   Past weeks

Flag for United Kingdom Past Weather in Inverness, Scotland, United Kingdom — Yesterday and Last 2 Weeks

Now
41 °F

Sunny.


Feels Like: 41 °F
Forecast: 26 / 36 °F
Wind: No wind

Location: Inverness / Dalcross

Current Time: Dec 4, 2016 at 2:10:06 pm

Latest Report: Dec 4, 2016 at 1:20 pm


Visibility: 10 mi

Pressure: 30.33 "Hg

Humidity: 81%

Dew Point: 36 °F

Location of InvernessLocation

Past Weather in Inverness — Graph

°F

Inverness Temperature Yesterday

Maximum temperature yesterday: 43 °F (at 12:50 pm)
Minimum temperature yesterday: 34 °F (at 7:20 am)
Average temperature yesterday: 39 °F

High & Low Weather Summary for the Past Weeks

 TemperatureHumidityPressure
High50 °F (Nov 26, 12:50 pm)100% (Nov 19, 11:20 pm)30.51 "Hg (Nov 19, 11:20 pm)
Low23 °F (Nov 20, 4:50 am)67% (Nov 30, 3:20 pm)29.27 "Hg (Nov 19, 2:20 pm)
Average38 °F89%30.15 "Hg
* Reported Nov 19 12:20 pm — Dec 4 12:50 pm, Inverness, Weather by CustomWeather, © 2016

Note: Actual official high and low records may vary slightly from our data, if they occured in-between our weather recording intervals... More about our weather records

Advertising

Inverness Weather History for the Previous 24 Hours

Scroll right to see more
 ConditionsComfort  
Time TempWeatherWind HumidityBarometerVisibility
12:50 pm
Sun, Dec 4
39 °FSunny.1 mph81%30.33 "Hg10 mi
12:20 pm39 °FSunny.1 mph75%30.33 "Hg10 mi
11:50 am39 °FSunny.1 mph75%30.33 "Hg10 mi
11:20 am41 °FSunny.No wind76%30.33 "Hg10 mi
10:50 am32 °FSunny.No wind93%30.36 "Hg10 mi
10:20 am30 °FSunny.No wind93%30.36 "Hg10 mi
9:50 am28 °FSunny.1 mph93%30.36 "Hg10 mi
9:20 am23 °FSunny.No wind100%30.36 "Hg10 mi
8:50 am23 °FSunny.No wind100%30.36 "Hg10 mi
8:20 am27 °FClear.1 mph93%30.36 "Hg10 mi
7:50 am27 °FClear.1 mph93%30.33 "Hg10 mi
7:20 am28 °FPassing clouds.2 mph93%30.33 "HgN/A
6:50 am27 °FPassing clouds.No wind100%30.33 "HgN/A
6:20 am27 °FPassing clouds.No wind100%30.33 "HgN/A
5:50 am27 °FOvercast.1 mph100%30.33 "HgN/A
5:20 am27 °FPassing clouds.No wind100%30.33 "HgN/A
4:50 am28 °FPassing clouds.1 mph100%30.33 "HgN/A
4:20 am28 °FPassing clouds.1 mph100%30.33 "HgN/A
3:50 am30 °FOvercast.No wind93%30.33 "HgN/A
3:20 am30 °FOvercast.No wind93%30.33 "HgN/A
2:50 am30 °FPassing clouds.No wind100%30.33 "HgN/A
2:20 am30 °FOvercast.1 mph100%30.33 "HgN/A
1:50 am30 °FOvercast.1 mph100%30.33 "HgN/A
1:20 am32 °FPassing clouds.1 mph93%30.33 "HgN/A
12:50 am34 °FOvercast.1 mph93%30.33 "HgN/A
12:20 am34 °FPassing clouds.1 mph93%30.33 "HgN/A
11:50 pm
Sat, Dec 3
36 °FPassing clouds.No wind93%30.33 "HgN/A
11:20 pm36 °FOvercast.No wind93%30.33 "HgN/A
10:50 pm37 °FOvercast.No wind87%30.33 "HgN/A
10:20 pm37 °FPassing clouds.1 mph87%30.33 "HgN/A
9:50 pm39 °FChilly.2 mph87%30.33 "HgN/A
9:20 pm39 °FChilly.2 mph87%30.33 "HgN/A
8:50 pm39 °FPassing clouds.5 mph93%30.33 "HgN/A
8:20 pm39 °FOvercast.6 mph93%30.33 "HgN/A
7:50 pm41 °FPassing clouds.6 mph87%30.33 "HgN/A
7:20 pm41 °FPassing clouds.7 mph87%30.33 "HgN/A
6:50 pm41 °FPassing clouds.3 mph87%30.33 "HgN/A
6:20 pm41 °FPassing clouds.1 mph87%30.33 "HgN/A
5:50 pm41 °FPassing clouds.3 mph93%30.30 "HgN/A
5:20 pm39 °FPassing clouds.5 mph93%30.30 "HgN/A
4:50 pm41 °FPassing clouds.1 mph93%30.30 "HgN/A
4:20 pm41 °FPassing clouds.1 mph93%30.30 "HgN/A
3:50 pm41 °FPassing clouds.5 mph93%30.30 "HgN/A
3:20 pm41 °FPartly sunny.5 mph93%30.30 "HgN/A
2:50 pm41 °FPartly sunny.6 mph93%30.30 "HgN/A
2:20 pm43 °FPartly sunny.5 mph87%30.30 "HgN/A
Weather by CustomWeather, © 2016

See weather overviewHow to use our weather pages